This is the latest recevied weather packets stored in our database for station/object W8AN. If no packets are shown the sender has not sent any weather packets the latest 1 day(s).
| Time | Temp. | Humidity | Pressure | Rain* | Wind** | Luminosity | Snow |
|---|---|---|---|---|---|---|---|
| 1778020175 | 10° C | 82% | 4263.1 hPa | 0 mm | 0 m/s | 23 W/m² | - |
| 1778019872 | 10° C | 83% | 4263.1 hPa | 0 mm | 0 m/s | 32 W/m² | - |
| 1778019568 | 10° C | 83% | 4263 hPa | 0 mm | 1.79 m/s, 320° | 37 W/m² | - |
| 1778019265 | 9.44° C | 83% | 4263.2 hPa | 0 mm | 0 m/s | 35 W/m² | - |
| 1778018962 | 9.44° C | 83% | 4262.9 hPa | 0 mm | 0 m/s | 49 W/m² | - |
| 1778018659 | 9.44° C | 83% | 4263.2 hPa | 1.78 mm | 0.45 m/s, 325° | 42 W/m² | - |
| 1778018357 | 9.44° C | 83% | 4262.9 hPa | 1.78 mm | 0 m/s | 44 W/m² | - |
| 1778018055 | 10° C | 83% | 4263 hPa | 0 mm | 2.24 m/s, 325° | 51 W/m² | - |
| 1778017752 | 10° C | 83% | 4262.8 hPa | 1.27 mm | 3.13 m/s, 322° | 77 W/m² | - |
| 1778017450 | 9.44° C | 83% | 4262.7 hPa | 3.05 mm | 2.68 m/s, 335° | 67 W/m² | - |
| 1778017147 | 9.44° C | 83% | 4263.1 hPa | 3.56 mm | 0 m/s | 46 W/m² | - |
| 1778016845 | 10° C | 83% | 4262.8 hPa | 1.78 mm | 0 m/s | 51 W/m² | - |
| 1778016540 | 10° C | 83% | 4262.9 hPa | 1.27 mm | 2.24 m/s, 331° | 51 W/m² | - |
| 1778016238 | 9.44° C | 83% | 4262.7 hPa | 1.27 mm | 3.58 m/s, 326° | 53 W/m² | - |
| 1778015934 | 10° C | 83% | 4262.8 hPa | 1.78 mm | 3.13 m/s, 334° | 54 W/m² | - |
| 1778015631 | 10° C | 83% | 4262.7 hPa | 1.78 mm | 4.02 m/s, 331° | 60 W/m² | - |
| 1778015328 | 9.44° C | 83% | 4262.8 hPa | 1.78 mm | 4.02 m/s, 320° | 68 W/m² | - |
| 1778015025 | 10° C | 83% | 4262.8 hPa | 1.27 mm | 4.47 m/s, 329° | 64 W/m² | - |
| 1778014721 | 10.56° C | 83% | 4263 hPa | 1.78 mm | 4.47 m/s, 330° | 29 W/m² | - |
| 1778014420 | 10.56° C | 83% | 4262.8 hPa | 1.78 mm | 3.13 m/s, 336° | 55 W/m² | - |
| 1778014116 | 10° C | 83% | 4262.8 hPa | 1.27 mm | 3.13 m/s, 328° | 54 W/m² | - |
| 1778013814 | 10° C | 83% | 4262.8 hPa | 3.05 mm | 3.13 m/s, 319° | 56 W/m² | - |
| 1778013511 | 10.56° C | 83% | 4262.7 hPa | 3.05 mm | 4.02 m/s, 331° | 55 W/m² | - |
| 1778013208 | 10.56° C | 82% | 4262.8 hPa | 3.05 mm | 6.71 m/s, 327° | 57 W/m² | - |
| 1778012904 | 10.56° C | 82% | 4262.7 hPa | 1.78 mm | 3.58 m/s, 337° | 62 W/m² | - |
* Rain latest hour (hover to see other rain measurements)
** Current wind speed in m/s (hover to see current wind gust speed)